Regional Weather Roundup
Issued by NWS Northern Indiana

Home | Current Version | Previous Version | Graphics & Text | Print | Product List | Glossary On
Versions: 1 2 3 4 5 6 7 8 9 10 11 12 13 14 15 16 17 18 19 20 21 22 23 24 25 26 27 28 29 30 31 32 33 34 35 36 37 38 39 40 41 42 43 44 45 46 47 48 49 50
000
ASUS43 KIWX 260700
RWRIWX

KIWX WEATHER ROUNDUP
NATIONAL WEATHER SERVICE NORTHERN INDIANA
300 AM EDT THU APR 26 2018

NOTE: "FAIR" INDICATES FEW OR NO CLOUDS BELOW 12,000 FEET WITH NO
SIGNIFICANT WEATHER AND/OR OBSTRUCTIONS TO VISIBILITY.

* THESE STATIONS ARE NOT UNDER NWS QUALITY CONTROL. THEY ALSO MAY NOT
  REPORT WEATHER SUCH AS PRECIPITATION OR FOG.

INZ001>027-260800-
NORTHERN INDIANA

CITY           SKY/WX    TMP DP  RH WIND       PRES   REMARKS
KNOX*          FAIR      30  30 100 NW3       29.96F
SOUTH BEND     FAIR      34  29  82 NW5       29.96F WCI  30
GOSHEN         FAIR      35  30  82 NW6       29.94F WCI  30
MONTICELLO*    FAIR      33  28  83 W3        29.96F
ROCHESTER*     FAIR      37  32  81 CALM      29.95S
WARSAW*        FAIR      36  30  80 N3        29.93F
FORT WAYNE     FAIR      37  31  78 CALM      29.93F
PERU/GRISSOM   FAIR      34  32  92 W6        29.94F WCI  29

$$
INZ028>050-260800-
CENTRAL INDIANA

CITY           SKY/WX    TMP DP  RH WIND       PRES   REMARKS
LAFAYETTE      FAIR      36  29  75 N3        29.96F
KOKOMO*        FAIR      36  28  73 NW6       29.95F
MUNCIE*        FAIR      39  30  70 W5        29.92F
INDIANAPOLIS   MOCLDY    41  30  65 NW5       29.93F

$$
MIZ043>046-050>051-056>058-064>065-071>073-077>080-260800-
SOUTHWEST LOWER MICHIGAN

CITY           SKY/WX    TMP DP  RH WIND       PRES   REMARKS
BATTLE CREEK   FAIR      37  32  82 CALM      29.94F
BENTON HARBOR  FAIR      33  30  88 CALM      29.95F
COLDWATER*     FAIR      36  32  88 CALM      29.93F
HILLSDALE*     FAIR      36  34  93 NE3       29.92F
HOLLAND        FAIR      36  28  73 CALM      29.95F
GRAND RAPIDS   FAIR      40  31  70 CALM      29.94F
KALAMAZOO      FAIR      36  31  82 CALM      29.95S
THREE RIVERS*  FAIR      37  32  82 CALM      29.94F

$$
OHZ001>008-015>018-024>025-260800-
NORTHWEST OHIO

CITY           SKY/WX    TMP DP  RH WIND       PRES   REMARKS
WAUSEON*       FAIR      39  39 100 E5        29.94S
DEFIANCE       FAIR      41  38  89 E7        29.93F
FINDLAY        FAIR      42  36  79 E8        29.91F
TOLEDO EXPRESS MOCLDY    42  41  96 E3        29.94S
TOLEDO METCALF FAIR      41  38  89 CALM      29.95F
LIMA           CLOUDY    42  40  92 E6        29.91F

$$
AND FOR LAKE MICHIGAN COASTAL AND OPEN LAKE BUOY OBSERVATIONS

STATION/POSITION TEMP    WIND        PRES    VSBY  WAVE
                 AIR SEA DIR/SP/G                  HT/PER
                 (F)     (DEG/KT/KT) (MB)    (MI)  (FT/S)
CALUMET HARBOR    39     310/  1/  1 1014.6F
MICHIGAN CITY     38     290/ 10/ 11   N/A
BURNS HARBOR      40     330/  6/  7 1015.6F
SAINT JOSEPH      40     360/  6/  6 1015.9
4 MI NW BRIDGMAN  40 43  340/  4/  6 1015.5F         3/ 6

$$
&&




USA.gov is the U.S. government's official web portal to all federal, state and local government web resources and services.